QPF
0.00 0.00 0.00 0.00 0.00 0.00 0.00 0.00 0.00 0.00 0.00 0.00 0.00 0.00 0.00 0.00 0.00 0.00 0.00 0.00 0.00 0.00 0.00 0.00 0.00 0.00 0.00 0.00 0.00 0.00 0.00 0.00 0.00 0.00 0.00 0.00 0.00 0.00 0.00 0.00 0.00 0.00 0.00 0.00
0.00 0.00 0.00 0.00 0.00 0.00 0.00 0.00 0.00 0.00 0.00 0.00 0.00 0.00 0.00 0.00 0.00 0.00 0.00 0.00 0.00 0.00 0.00 0.00 0.00 0.00 0.00 0.00 0.00 0.00 0.00 0.00 0.00 0.00 0.00 0.00 0.00 0.00 0.00 0.00 0.00 0.00 0.00 0.00
0.00 0.00 0.00 0.00 0.00 0.00 0.00 0.00 0.00 0.00 0.00 0.00 0.00 0.00 0.00 0.00 0.00 0.00 0.00 0.00 0.00 0.00 0.00 0.00 0.00 0.00 0.00 0.00 0.00 0.00 0.00 0.00 0.01 0.01 0.01 0.01 0.01 0.01 0.01 0.01 0.01 0.00 0.00 0.00
0.00 0.00 0.00 0.00 0.00 0.00 0.00 0.00 0.00 0.00 0.00 0.00 0.00 0.00 0.00 0.00 0.00 0.00 0.00 0.00 0.00 0.00 0.00 0.00 0.00 0.00 0.00 0.00 0.00 0.00 0.00 0.01 0.01 0.02 0.03 0.03 0.04 0.03 0.03 0.02 0.02 0.02 0.01 0.00
0.00 0.00 0.00 0.00 0.00 0.00 0.00 0.00 0.00 0.00 0.00 0.00 0.00 0.00 0.00 0.00 0.00 0.00 0.00 0.00 0.00 0.00 0.00 0.00 0.00 0.00 0.00 0.00 0.00 0.00 0.01 0.01 0.02 0.03 0.05 0.06 0.07 0.06 0.06 0.05 0.04 0.04 0.03 0.01
0.00 0.00 0.00 0.00 0.00 0.00 0.00 0.00 0.00 0.00 0.00 0.00 0.00 0.00 0.00 0.00 0.00 0.00 0.00 0.00 0.00 0.00 0.00 0.00 0.00 0.00 0.00 0.00 0.00 0.01 0.01 0.02 0.03 0.05 0.08 0.10 0.11 0.11 0.10 0.08 0.07 0.05 0.04 0.02
0.00 0.00 0.00 0.00 0.00 0.00 0.00 0.00 0.00 0.00 0.00 0.00 0.00 0.00 0.00 0.00 0.00 0.00 0.00 0.00 0.00 0.00 0.00 0.00 0.00 0.00 0.00 0.00 0.01 0.01 0.01 0.02 0.03 0.05 0.08 0.11 0.13 0.15 0.14 0.12 0.08 0.05 0.03 0.02
0.00 0.00 0.00 0.00 0.00 0.00 0.00 0.00 0.00 0.00 0.00 0.00 0.00 0.00 0.00 0.00 0.00 0.00 0.00 0.00 0.00 0.00 0.00 0.00 0.00 0.00 0.01 0.01 0.01 0.01 0.01 0.02 0.02 0.04 0.06 0.08 0.10 0.12 0.15 0.16 0.14 0.09 0.05 0.02
0.00 0.00 0.00 0.00 0.00 0.00 0.00 0.00 0.00 0.00 0.00 0.00 0.00 0.00 0.00 0.00 0.00 0.00 0.00 0.00 0.00 0.00 0.00 0.00 0.00 0.00 0.01 0.01 0.01 0.01 0.01 0.02 0.03 0.04 0.05 0.07 0.08 0.10 0.11 0.11 0.11 0.09 0.06 0.03
0.00 0.00 0.00 0.00 0.00 0.00 0.00 0.00 0.00 0.00 0.00 0.00 0.00 0.00 0.00 0.00 0.00 0.00 0.00 0.00 0.00 0.00 0.00 0.00 0.00 0.01 0.01 0.01 0.01 0.01 0.02 0.02 0.03 0.04 0.06 0.07 0.09 0.10 0.11 0.11 0.09 0.07 0.04 0.02
0.00 0.00 0.00 0.00 0.00 0.00 0.00 0.00 0.00 0.00 0.00 0.00 0.00 0.00 0.00 0.00 0.00 0.00 0.00 0.00 0.00 0.00 0.00 0.01 0.01 0.01 0.01 0.01 0.01 0.02 0.02 0.03 0.03 0.04 0.05 0.06 0.07 0.09 0.11 0.11 0.10 0.07 0.04 0.02
0.00 0.00 0.00 0.00 0.00 0.00 0.00 0.00 0.00 0.00 0.00 0.00 0.00 0.00 0.00 0.00 0.00 0.00 0.00 0.00 0.00 0.00 0.01 0.01 0.01 0.01 0.01 0.01 0.02 0.02 0.03 0.03 0.03 0.03 0.03 0.04 0.05 0.06 0.06 0.07 0.07 0.05 0.03 0.01
0.00 0.00 0.00 0.00 0.00 0.00 0.00 0.00 0.00 0.00 0.00 0.00 0.00 0.00 0.00 0.00 0.00 0.00 0.00 0.00 0.00 0.00 0.01 0.01 0.01 0.02 0.01 0.02 0.02 0.02 0.02 0.02 0.02 0.02 0.01 0.02 0.02 0.03 0.04 0.04 0.04 0.04 0.03 0.01
0.00 0.00 0.00 0.00 0.00 0.00 0.00 0.00 0.00 0.00 0.00 0.00 0.00 0.00 0.00 0.00 0.00 0.00 0.00 0.00 0.00 0.00 0.01 0.01 0.02 0.03 0.03 0.03 0.02 0.01 0.01 0.01 0.01 0.01 0.01 0.01 0.01 0.01 0.01 0.01 0.02 0.02 0.01 0.01
0.00 0.00 0.00 0.00 0.00 0.00 0.00 0.00 0.00 0.00 0.00 0.00 0.00 0.00 0.00 0.00 0.00 0.00 0.00 0.00 0.00 0.00 0.01 0.02 0.03 0.04 0.04 0.04 0.02 0.01 0.01 0.00 0.00 0.00 0.01 0.00 0.00 0.00 0.00 0.01 0.01 0.00 0.01 0.01
0.00 0.00 0.00 0.00 0.00 0.00 0.00 0.00 0.00 0.00 0.00 0.00 0.00 0.00 0.00 0.00 0.00 0.00 0.00 0.00 0.00 0.00 0.01 0.02 0.03 0.03 0.04 0.04 0.03 0.01 0.01 0.01 0.00 0.00 0.00 0.01 0.00 0.00 0.01 0.01 0.01 0.00 0.01 0.00
0.00 0.00 0.00 0.00 0.00 0.00 0.00 0.00 0.00 0.00 0.00 0.00 0.00 0.00 0.00 0.00 0.00 0.00 0.00 0.00 0.00 0.00 0.01 0.01 0.02 0.02 0.03 0.04 0.03 0.02 0.01 0.01 0.00 0.00 0.00 0.00 0.00 0.00 0.00 0.01 0.02 0.01 0.01 0.01
0.00 0.00 0.00 0.00 0.00 0.00 0.00 0.00 0.00 0.00 0.00 0.00 0.00 0.00 0.00 0.00 0.00 0.00 0.00 0.00 0.00 0.00 0.00 0.01 0.01 0.02 0.02 0.04 0.03 0.02 0.01 0.01 0.00 0.00 0.00 0.00 0.00 0.00 0.00 0.00 0.01 0.02 0.01 0.01
0.00 0.00 0.00 0.00 0.00 0.00 0.00 0.00 0.00 0.00 0.00 0.00 0.00 0.00 0.00 0.00 0.00 0.00 0.00 0.00 0.00 0.00 0.00 0.00 0.02 0.01 0.02 0.04 0.04 0.03 0.02 0.01 0.01 0.00 0.00 0.00 0.00 0.00 0.00 0.00 0.01 0.02 0.02 0.02
0.00 0.00 0.00 0.00 0.00 0.00 0.00 0.00 0.00 0.00 0.00 0.00 0.00 0.00 0.00 0.00 0.00 0.00 0.00 0.00 0.00 0.00 0.00 0.00 0.01 0.01 0.01 0.02 0.04 0.03 0.02 0.02 0.01 0.00 0.00 0.00 0.00 0.00 0.00 0.00 0.01 0.02 0.03 0.04
0.00 0.00 0.00 0.00 0.00 0.00 0.00 0.00 0.00 0.00 0.00 0.00 0.00 0.00 0.00 0.00 0.00 0.00 0.00 0.00 0.00 0.00 0.00 0.01 0.00 0.00 0.01 0.02 0.04 0.02 0.02 0.02 0.01 0.01 0.00 0.00 0.00 0.00 0.00 0.00 0.01 0.02 0.03 0.03
0.00 0.00 0.00 0.00 0.00 0.00 0.00 0.00 0.00 0.00 0.00 0.00 0.00 0.00 0.00 0.00 0.00 0.00 0.00 0.00 0.00 0.00 0.00 0.00 0.00 0.00 0.01 0.01 0.02 0.02 0.01 0.01 0.01 0.01 0.00 0.00 0.00 0.00 0.00 0.00 0.00 0.00 0.01 0.02
0.00 0.00 0.00 0.00 0.00 0.00 0.00 0.00 0.00 0.00 0.00 0.00 0.00 0.00 0.00 0.00 0.00 0.00 0.00 0.00 0.00 0.00 0.00 0.00 0.00 0.00 0.01 0.01 0.01 0.01 0.01 0.01 0.01 0.01 0.01 0.00 0.00 0.00 0.00 0.00 0.00 0.00 0.00 0.00
0.00 0.00 0.00 0.00 0.00 0.00 0.00 0.00 0.00 0.00 0.00 0.00 0.00 0.00 0.00 0.00 0.00 0.00 0.00 0.00 0.00 0.00 0.00 0.00 0.00 0.00 0.01 0.01 0.01 0.01 0.01 0.01 0.01 0.01 0.01 0.00 0.00 0.00 0.00 0.00 0.00 0.00 0.00 0.00
0.00 0.00 0.00 0.00 0.00 0.00 0.00 0.00 0.00 0.00 0.00 0.00 0.00 0.00 0.00 0.00 0.00 0.00 0.00 0.00 0.00 0.00 0.00 0.00 0.00 0.00 0.00 0.01 0.01 0.01 0.01 0.01 0.01 0.01 0.01 0.01 0.01 0.01 0.01 0.01 0.01 0.00 0.00 0.00
0.01 0.01 0.01 0.00 0.00 0.00 0.00 0.00 0.00 0.00 0.00 0.00 0.00 0.00 0.00 0.00 0.00 0.00 0.00 0.00 0.00 0.00 0.00 0.00 0.00 0.00 0.00 0.01 0.01 0.01 0.01 0.01 0.01 0.01 0.01 0.01 0.01 0.01 0.00 0.00 0.00 0.00 0.00 0.00
0.01 0.01 0.01 0.01 0.01 0.00 0.00 0.00 0.00 0.00 0.00 0.00 0.00 0.00 0.00 0.00 0.00 0.00 0.00 0.00 0.00 0.00 0.00 0.00 0.00 0.00 0.00 0.01 0.01 0.02 0.02 0.01 0.01 0.01 0.01 0.01 0.01 0.01 0.01 0.00 0.00 0.00 0.00 0.00
MSLP
1017.07 1017.47 1017.83 1018.13 1018.38 1018.58 1018.72 1018.79 1018.79 1018.72 1018.57 1018.37 1018.12 1017.83 1017.53 1017.21 1016.87 1016.51 1016.13 1015.73 1015.29 1014.82 1014.32 1013.82 1013.30 1012.79 1012.28 1011.75 1011.21 1010.63 1010.01 1009.33 1008.61 1007.86 1007.12 1006.42 1005.82 1005.35 1005.03 1004.88 1004.88 1005.02 1005.24 1005.51
1017.59 1017.96 1018.24 1018.43 1018.53 1018.56 1018.55 1018.49 1018.40 1018.29 1018.16 1018.02 1017.85 1017.66 1017.43 1017.17 1016.85 1016.49 1016.07 1015.61 1015.11 1014.59 1014.07 1013.56 1013.06 1012.57 1012.09 1011.60 1011.07 1010.47 1009.80 1009.06 1008.24 1007.39 1006.53 1005.74 1005.05 1004.51 1004.14 1003.97 1003.97 1004.12 1004.37 1004.68
1018.02 1018.35 1018.54 1018.61 1018.58 1018.49 1018.35 1018.19 1018.05 1017.92 1017.81 1017.71 1017.60 1017.48 1017.31 1017.08 1016.77 1016.38 1015.92 1015.40 1014.83 1014.26 1013.69 1013.15 1012.65 1012.18 1011.71 1011.23 1010.70 1010.10 1009.40 1008.62 1007.75 1006.84 1005.93 1005.08 1004.35 1003.78 1003.40 1003.22 1003.22 1003.38 1003.65 1003.97
1018.35 1018.59 1018.69 1018.66 1018.53 1018.33 1018.11 1017.90 1017.72 1017.58 1017.49 1017.42 1017.36 1017.28 1017.14 1016.92 1016.60 1016.18 1015.67 1015.08 1014.46 1013.82 1013.20 1012.63 1012.10 1011.61 1011.14 1010.66 1010.13 1009.52 1008.82 1008.02 1007.14 1006.22 1005.31 1004.46 1003.73 1003.17 1002.80 1002.63 1002.64 1002.80 1003.07 1003.39
1018.51 1018.65 1018.66 1018.54 1018.34 1018.08 1017.82 1017.58 1017.38 1017.25 1017.17 1017.13 1017.10 1017.04 1016.91 1016.69 1016.35 1015.90 1015.34 1014.70 1014.01 1013.31 1012.64 1012.02 1011.45 1010.93 1010.44 1009.94 1009.40 1008.80 1008.10 1007.32 1006.46 1005.58 1004.70 1003.89 1003.20 1002.67 1002.32 1002.16 1002.18 1002.33 1002.58 1002.88
1018.47 1018.50 1018.42 1018.23 1017.98 1017.70 1017.42 1017.18 1017.00 1016.88 1016.82 1016.81 1016.79 1016.74 1016.62 1016.39 1016.03 1015.55 1014.96 1014.27 1013.53 1012.79 1012.06 1011.39 1010.77 1010.21 1009.69 1009.17 1008.62 1008.01 1007.33 1006.58 1005.77 1004.94 1004.12 1003.37 1002.74 1002.25 1001.93 1001.78 1001.78 1001.91 1002.13 1002.40
1018.18 1018.10 1017.95 1017.72 1017.46 1017.18 1016.92 1016.71 1016.55 1016.47 1016.44 1016.44 1016.44 1016.39 1016.27 1016.03 1015.67 1015.17 1014.56 1013.85 1013.08 1012.30 1011.53 1010.81 1010.15 1009.54 1008.97 1008.41 1007.85 1007.24 1006.58 1005.87 1005.12 1004.35 1003.60 1002.92 1002.33 1001.88 1001.58 1001.42 1001.40 1001.50 1001.67 1001.90
1017.64 1017.48 1017.27 1017.03 1016.78 1016.54 1016.32 1016.16 1016.06 1016.01 1016.01 1016.04 1016.05 1016.01 1015.89 1015.65 1015.29 1014.79 1014.18 1013.46 1012.68 1011.87 1011.08 1010.32 1009.61 1008.95 1008.33 1007.74 1007.16 1006.55 1005.91 1005.24 1004.54 1003.84 1003.16 1002.53 1001.99 1001.56 1001.25 1001.07 1001.01 1001.06 1001.19 1001.37
1016.90 1016.68 1016.45 1016.23 1016.01 1015.83 1015.69 1015.59 1015.55 1015.55 1015.58 1015.62 1015.65 1015.62 1015.50 1015.27 1014.92 1014.44 1013.83 1013.12 1012.34 1011.53 1010.71 1009.92 1009.17 1008.47 1007.81 1007.18 1006.58 1005.97 1005.35 1004.72 1004.07 1003.42 1002.80 1002.22 1001.70 1001.28 1000.96 1000.74 1000.63 1000.61 1000.68 1000.81
1016.00 1015.77 1015.55 1015.37 1015.23 1015.12 1015.06 1015.04 1015.06 1015.11 1015.18 1015.24 1015.27 1015.24 1015.13 1014.91 1014.57 1014.11 1013.52 1012.83 1012.06 1011.25 1010.42 1009.61 1008.82 1008.08 1007.38 1006.73 1006.10 1005.49 1004.90 1004.30 1003.70 1003.10 1002.53 1001.98 1001.49 1001.06 1000.71 1000.45 1000.29 1000.21 1000.21 1000.30
1015.05 1014.83 1014.66 1014.55 1014.49 1014.48 1014.51 1014.57 1014.65 1014.74 1014.83 1014.90 1014.93 1014.90 1014.79 1014.57 1014.24 1013.80 1013.23 1012.56 1011.81 1011.01 1010.17 1009.34 1008.52 1007.75 1007.02 1006.34 1005.70 1005.10 1004.52 1003.96 1003.41 1002.87 1002.34 1001.83 1001.35 1000.92 1000.55 1000.25 1000.03 999.89 999.84 999.88
1014.09 1013.93 1013.84 1013.82 1013.86 1013.95 1014.06 1014.19 1014.33 1014.45 1014.55 1014.62 1014.64 1014.60 1014.47 1014.25 1013.93 1013.49 1012.94 1012.29 1011.55 1010.75 1009.92 1009.07 1008.24 1007.44 1006.69 1005.99 1005.35 1004.75 1004.20 1003.68 1003.18 1002.69 1002.21 1001.74 1001.29 1000.87 1000.49 1000.16 999.90 999.72 999.63 999.63
1013.20 1013.11 1013.12 1013.21 1013.35 1013.53 1013.73 1013.92 1014.09 1014.23 1014.34 1014.39 1014.39 1014.32 1014.17 1013.94 1013.61 1013.17 1012.63 1011.99 1011.27 1010.47 1009.63 1008.78 1007.93 1007.11 1006.34 1005.64 1005.00 1004.42 1003.89 1003.41 1002.96 1002.53 1002.11 1001.69 1001.28 1000.88 1000.51 1000.17 999.89 999.69 999.57 999.54
1012.37 1012.39 1012.50 1012.69 1012.94 1013.21 1013.47 1013.72 1013.91 1014.06 1014.16 1014.19 1014.16 1014.05 1013.88 1013.62 1013.27 1012.83 1012.30 1011.66 1010.94 1010.15 1009.32 1008.45 1007.60 1006.77 1005.99 1005.27 1004.63 1004.07 1003.57 1003.13 1002.73 1002.36 1001.99 1001.63 1001.28 1000.92 1000.58 1000.27 999.99 999.79 999.66 999.61
1011.62 1011.74 1011.96 1012.26 1012.59 1012.94 1013.26 1013.54 1013.76 1013.91 1013.98 1013.99 1013.92 1013.78 1013.58 1013.29 1012.93 1012.48 1011.94 1011.31 1010.60 1009.82 1008.98 1008.12 1007.25 1006.42 1005.63 1004.91 1004.27 1003.71 1003.23 1002.82 1002.46 1002.14 1001.83 1001.54 1001.24 1000.94 1000.65 1000.38 1000.14 999.95 999.83 999.78
1010.93 1011.15 1011.47 1011.86 1012.27 1012.68 1013.05 1013.36 1013.59 1013.73 1013.80 1013.77 1013.68 1013.51 1013.27 1012.97 1012.59 1012.14 1011.60 1010.97 1010.27 1009.49 1008.67 1007.81 1006.94 1006.10 1005.30 1004.57 1003.92 1003.36 1002.88 1002.48 1002.15 1001.86 1001.60 1001.36 1001.13 1000.90 1000.67 1000.46 1000.27 1000.12 1000.02 999.98
1010.29 1010.60 1011.00 1011.47 1011.95 1012.41 1012.81 1013.14 1013.38 1013.53 1013.58 1013.55 1013.43 1013.24 1012.99 1012.67 1012.28 1011.83 1011.29 1010.68 1009.99 1009.23 1008.41 1007.56 1006.69 1005.84 1005.04 1004.29 1003.62 1003.04 1002.55 1002.15 1001.81 1001.54 1001.31 1001.11 1000.93 1000.76 1000.60 1000.45 1000.33 1000.23 1000.17 1000.15
1009.71 1010.09 1010.55 1011.07 1011.60 1012.10 1012.53 1012.88 1013.14 1013.29 1013.35 1013.31 1013.19 1013.00 1012.74 1012.42 1012.03 1011.58 1011.06 1010.46 1009.78 1009.04 1008.24 1007.41 1006.55 1005.70 1004.88 1004.11 1003.42 1002.81 1002.29 1001.85 1001.49 1001.21 1000.98 1000.80 1000.65 1000.53 1000.43 1000.35 1000.29 1000.26 1000.25 1000.26
1009.19 1009.62 1010.12 1010.67 1011.23 1011.75 1012.21 1012.59 1012.86 1013.03 1013.10 1013.08 1012.97 1012.79 1012.54 1012.23 1011.85 1011.41 1010.91 1010.33 1009.67 1008.96 1008.18 1007.37 1006.52 1005.68 1004.85 1004.07 1003.34 1002.69 1002.13 1001.64 1001.25 1000.93 1000.68 1000.49 1000.36 1000.27 1000.21 1000.19 1000.19 1000.21 1000.25 1000.30
1008.76 1009.20 1009.72 1010.28 1010.85 1011.39 1011.87 1012.26 1012.56 1012.76 1012.86 1012.87 1012.79 1012.63 1012.40 1012.10 1011.74 1011.32 1010.83 1010.27 1009.65 1008.96 1008.21 1007.42 1006.60 1005.77 1004.95 1004.15 1003.41 1002.72 1002.11 1001.57 1001.12 1000.75 1000.47 1000.26 1000.11 1000.03 1000.00 1000.02 1000.06 1000.14 1000.22 1000.32
1008.41 1008.84 1009.35 1009.90 1010.46 1011.00 1011.50 1011.92 1012.25 1012.49 1012.63 1012.68 1012.64 1012.51 1012.30 1012.03 1011.69 1011.28 1010.81 1010.27 1009.67 1009.01 1008.30 1007.54 1006.76 1005.96 1005.15 1004.36 1003.60 1002.89 1002.24 1001.66 1001.16 1000.74 1000.41 1000.16 999.99 999.90 999.88 999.91 999.99 1000.09 1000.22 1000.34
1008.11 1008.50 1008.98 1009.50 1010.05 1010.60 1011.10 1011.55 1011.92 1012.21 1012.40 1012.50 1012.50 1012.41 1012.24 1011.99 1011.66 1011.27 1010.81 1010.29 1009.71 1009.08 1008.41 1007.70 1006.95 1006.19 1005.42 1004.66 1003.91 1003.20 1002.53 1001.92 1001.38 1000.92 1000.54 1000.25 1000.05 999.93 999.90 999.93 1000.02 1000.14 1000.28 1000.43
1007.81 1008.16 1008.59 1009.08 1009.61 1010.14 1010.67 1011.15 1011.57 1011.91 1012.16 1012.31 1012.37 1012.32 1012.18 1011.96 1011.65 1011.26 1010.81 1010.31 1009.75 1009.15 1008.51 1007.84 1007.15 1006.44 1005.73 1005.01 1004.30 1003.61 1002.95 1002.34 1001.78 1001.29 1000.87 1000.54 1000.31 1000.16 1000.09 1000.11 1000.18 1000.30 1000.44 1000.59
1007.47 1007.75 1008.12 1008.58 1009.08 1009.62 1010.17 1010.69 1011.16 1011.56 1011.88 1012.10 1012.21 1012.22 1012.11 1011.91 1011.62 1011.25 1010.81 1010.31 1009.77 1009.19 1008.59 1007.97 1007.34 1006.69 1006.04 1005.39 1004.74 1004.10 1003.47 1002.88 1002.33 1001.82 1001.39 1001.03 1000.75 1000.57 1000.46 1000.44 1000.48 1000.58 1000.70 1000.84
1007.01 1007.23 1007.55 1007.97 1008.47 1009.01 1009.58 1010.15 1010.68 1011.16 1011.55 1011.85 1012.02 1012.08 1012.03 1011.85 1011.58 1011.22 1010.79 1010.30 1009.77 1009.22 1008.65 1008.08 1007.50 1006.93 1006.35 1005.78 1005.20 1004.62 1004.06 1003.50 1002.97 1002.48 1002.04 1001.66 1001.35 1001.12 1000.97 1000.90 1000.90 1000.95 1001.04 1001.15
1006.41 1006.57 1006.85 1007.24 1007.73 1008.30 1008.90 1009.53 1010.13 1010.69 1011.16 1011.54 1011.79 1011.92 1011.91 1011.78 1011.54 1011.20 1010.78 1010.31 1009.80 1009.27 1008.73 1008.20 1007.68 1007.17 1006.67 1006.17 1005.67 1005.17 1004.67 1004.17 1003.68 1003.21 1002.78 1002.38 1002.05 1001.78 1001.59 1001.46 1001.40 1001.40 1001.44 1001.50
1005.66 1005.77 1006.02 1006.40 1006.90 1007.49 1008.14 1008.82 1009.51 1010.15 1010.71 1011.18 1011.52 1011.73 1011.79 1011.71 1011.51 1011.21 1010.81 1010.36 1009.87 1009.37 1008.87 1008.38 1007.90 1007.45 1007.01 1006.59 1006.17 1005.74 1005.30 1004.86 1004.42 1003.98 1003.56 1003.16 1002.81 1002.51 1002.26 1002.08 1001.96 1001.89 1001.88 1001.89
Thickness
5694 5697 5693 5685 5681 5678 5670 5663 5649 5648 5646 5645 5640 5633 5629 5625 5620 5613 5606 5601 5595 5589 5584 5579 5575 5571 5567 5563 5558 5553 5548 5544 5541 5540 5539 5538 5538 5537 5537 5537 5539 5540 5540 5542
5689 5690 5686 5678 5677 5675 5669 5664 5656 5649 5643 5646 5638 5628 5621 5617 5611 5604 5598 5594 5589 5584 5578 5573 5568 5563 5558 5551 5545 5538 5532 5527 5523 5520 5518 5518 5518 5518 5519 5521 5523 5525 5528 5530
5676 5683 5679 5667 5672 5670 5665 5660 5652 5640 5640 5640 5632 5623 5617 5613 5606 5598 5593 5588 5582 5577 5571 5566 5560 5555 5548 5541 5534 5526 5518 5513 5508 5503 5500 5498 5498 5500 5502 5504 5507 5510 5515 5519
5670 5673 5664 5669 5681 5676 5666 5658 5652 5645 5639 5634 5627 5622 5613 5607 5598 5592 5586 5582 5576 5570 5565 5560 5554 5548 5540 5533 5524 5516 5509 5502 5495 5489 5485 5482 5480 5483 5486 5489 5493 5497 5503 5508
5662 5663 5665 5672 5677 5671 5659 5650 5651 5643 5636 5630 5626 5617 5611 5608 5599 5589 5582 5575 5569 5564 5560 5555 5549 5542 5535 5527 5517 5508 5500 5493 5485 5479 5473 5469 5468 5469 5472 5475 5480 5485 5491 5498
5661 5662 5656 5668 5679 5675 5659 5646 5650 5642 5633 5625 5616 5604 5605 5604 5593 5585 5577 5570 5565 5561 5556 5551 5546 5539 5530 5522 5513 5503 5495 5486 5478 5470 5465 5461 5459 5459 5461 5465 5470 5476 5483 5490
5660 5657 5662 5677 5678 5668 5646 5646 5650 5641 5633 5623 5609 5601 5600 5594 5586 5578 5572 5567 5562 5558 5554 5550 5544 5536 5527 5518 5509 5500 5491 5482 5473 5465 5459 5456 5454 5453 5455 5459 5464 5469 5476 5483
5652 5654 5660 5680 5670 5659 5656 5656 5649 5642 5633 5623 5613 5605 5597 5590 5582 5576 5570 5566 5561 5556 5553 5548 5542 5533 5524 5516 5507 5497 5488 5479 5471 5463 5457 5455 5451 5450 5451 5455 5460 5464 5470 5477
5667 5669 5678 5678 5673 5670 5660 5652 5648 5639 5631 5621 5612 5602 5594 5586 5579 5573 5568 5564 5559 5555 5551 5547 5540 5531 5522 5515 5506 5497 5488 5479 5470 5463 5457 5453 5451 5450 5451 5454 5458 5463 5468 5475
5672 5676 5678 5677 5674 5670 5661 5652 5647 5638 5628 5619 5608 5599 5589 5582 5577 5572 5567 5563 5558 5553 5550 5546 5539 5531 5522 5514 5505 5497 5488 5480 5471 5464 5459 5455 5452 5452 5453 5454 5457 5462 5468 5473
5673 5678 5677 5674 5670 5666 5659 5652 5643 5634 5625 5616 5606 5596 5588 5581 5576 5571 5567 5561 5556 5551 5548 5545 5540 5532 5524 5515 5507 5499 5491 5482 5474 5468 5462 5459 5456 5455 5456 5457 5459 5463 5468 5473
5676 5682 5674 5672 5671 5664 5655 5647 5639 5630 5622 5613 5604 5595 5588 5581 5576 5570 5565 5560 5555 5551 5548 5544 5540 5534 5526 5518 5509 5501 5494 5486 5478 5471 5466 5462 5460 5459 5459 5460 5462 5464 5468 5472
5692 5687 5678 5675 5669 5662 5653 5645 5637 5629 5620 5611 5603 5595 5587 5579 5574 5569 5564 5559 5554 5550 5547 5544 5541 5535 5529 5521 5512 5504 5496 5489 5483 5476 5470 5466 5463 5462 5462 5463 5464 5465 5468 5472
5690 5682 5675 5670 5664 5658 5651 5644 5635 5626 5617 5608 5600 5593 5585 5578 5573 5568 5564 5559 5554 5550 5547 5545 5542 5538 5531 5524 5517 5509 5501 5494 5488 5481 5475 5471 5468 5466 5465 5466 5468 5468 5469 5471
5687 5683 5677 5671 5662 5655 5647 5638 5629 5619 5611 5605 5598 5591 5584 5578 5573 5568 5563 5558 5554 5551 5548 5546 5543 5540 5535 5529 5522 5515 5507 5500 5494 5488 5482 5477 5473 5471 5470 5470 5470 5470 5471 5472
5685 5679 5672 5665 5657 5650 5642 5634 5625 5615 5608 5602 5595 5589 5583 5577 5571 5566 5561 5556 5552 5550 5548 5545 5543 5540 5538 5534 5528 5522 5514 5508 5503 5496 5489 5485 5481 5478 5476 5475 5474 5473 5474 5475
5679 5671 5665 5658 5652 5644 5637 5629 5620 5613 5605 5599 5593 5587 5580 5575 5570 5567 5563 5558 5552 5548 5546 5544 5542 5542 5542 5539 5534 5528 5522 5515 5510 5502 5497 5492 5488 5485 5482 5480 5479 5478 5477 5476
5689 5681 5670 5661 5651 5641 5634 5627 5618 5611 5603 5597 5590 5582 5576 5571 5566 5564 5561 5557 5554 5551 5548 5545 5544 5545 5545 5543 5540 5535 5528 5522 5516 5509 5504 5500 5496 5492 5488 5486 5484 5483 5481 5481
5682 5674 5665 5657 5649 5640 5630 5622 5615 5607 5601 5593 5585 5578 5572 5567 5562 5558 5555 5553 5552 5551 5548 5545 5544 5546 5546 5546 5544 5541 5535 5530 5524 5518 5513 5508 5504 5500 5496 5492 5490 5488 5487 5486
5675 5668 5659 5651 5642 5634 5625 5618 5611 5603 5597 5589 5581 5574 5569 5565 5561 5557 5553 5549 5547 5544 5542 5541 5543 5545 5546 5547 5547 5545 5541 5536 5532 5526 5521 5517 5513 5508 5504 5500 5497 5495 5493 5493
5667 5660 5652 5643 5635 5628 5621 5615 5606 5599 5592 5585 5577 5571 5565 5560 5556 5553 5551 5551 5548 5543 5541 5540 5541 5542 5544 5546 5548 5548 5545 5542 5538 5533 5529 5524 5521 5516 5512 5509 5505 5503 5501 5500
5659 5652 5644 5637 5628 5621 5615 5608 5601 5594 5587 5580 5573 5566 5560 5556 5553 5549 5547 5545 5544 5541 5539 5539 5539 5539 5541 5545 5548 5548 5547 5546 5543 5539 5536 5532 5528 5524 5520 5517 5513 5511 5510 5508
5651 5644 5637 5630 5623 5616 5609 5603 5597 5590 5582 5575 5568 5562 5556 5551 5548 5546 5546 5543 5541 5538 5537 5536 5535 5536 5539 5543 5545 5546 5546 5546 5545 5544 5542 5539 5535 5532 5528 5525 5522 5519 5517 5516
5642 5636 5631 5625 5617 5610 5604 5599 5592 5585 5577 5570 5563 5557 5551 5547 5544 5541 5539 5538 5537 5535 5535 5533 5532 5533 5536 5539 5540 5542 5543 5543 5544 5545 5545 5544 5542 5539 5536 5534 5531 5528 5526 5525
5635 5631 5625 5618 5613 5609 5603 5594 5586 5579 5572 5564 5558 5552 5546 5542 5538 5537 5536 5535 5533 5532 5532 5531 5530 5530 5532 5533 5535 5537 5538 5539 5540 5542 5544 5545 5546 5545 5544 5541 5539 5537 5535 5533
5627 5626 5623 5619 5617 5609 5599 5589 5581 5574 5567 5559 5553 5547 5542 5538 5535 5533 5531 5530 5529 5528 5528 5528 5527 5527 5527 5528 5529 5531 5533 5535 5537 5539 5541 5543 5545 5547 5548 5547 5546 5544 5542 5541
5618 5618 5614 5611 5607 5601 5593 5586 5579 5572 5564 5557 5549 5542 5537 5533 5530 5529 5527 5525 5524 5523 5523 5522 5521 5520 5521 5522 5523 5525 5527 5529 5531 5534 5536 5539 5542 5544 5546 5548 5549 5548 5548 5547